Location: Great Falls
(47.5000°N, 111.3000°W)
Time: 13:12:47
(UTC-07:00)

Tiangong 1 - Visible Passes

Search period start: 17 January 2018 00:00
Search period end: 27 January 2018 00:00
Orbit: 264 x 288 km, 42.8° (Epoch: 17 January)

Date Brightness Start Highest point End Pass type
(mag) Time Alt. Az. Time Alt. Az. Time Alt. Az.
17 Jan 2.5 19:00:47 10° WSW 19:02:22 23° SSW 19:02:22 23° SSW visible
18 Jan 2.5 19:00:34 10° WSW 19:02:17 24° SSW 19:02:17 24° SSW visible
19 Jan 2.6 19:00:17 10° WSW 19:02:06 22° SSW 19:02:06 22° SSW visible
20 Jan 2.8 18:59:56 10° WSW 19:01:44 18° SSW 19:01:52 18° S visible
21 Jan 3.2 18:59:37 10° SW 19:01:02 14° SSW 19:01:35 13° S visible
